Location: Unspecified
(35.6961°N, 0.0000°E)
Time: 18:30:52
(UTC+00:00)

Vanguard 2 Rocket - Pass Details

Date: 28 May 2019
Orbit: 554 x 3326 km, 32.9° (Epoch: 16 June)

Event Time Altitude Azimuth Distance (km) Brightness Sun altitude
Rises 09:11:34 0° 281° (W) 6,630 10.9 51.3°
Reaches altitude 10° 09:16:39 10° 278° (W) 5,233 10.5 52.3°
Maximum altitude 09:30:05 56° 205° (SSW) 1,918 9.2 54.9°
Drops below altitude 10° 09:37:37 10° 129° (SE) 3,037 10.3 56.4°
Sets 09:39:49 0° 125° (SE) 3,739 10.5 56.9°
